STARLINK-2308 (47985 NORAD) Tracking and Keplerian Element Data

This shows tracking and keplerian element data for the satellite.

Feedback or suggestion? Click here.




ElementValue
Catalog47985
NameSTARLINK-2308
Epoch Orbit187
Epoch Day170.58334491
Epoch Year2021
RAAN130.8804
Inclination53.0468
Eccentricity0.0004076
Argument of Perigee15.4967
Mean Anonmoly315.3723
Mean Motion15.73233961
Decay Rate-5.271E-05
L11 47985U 21024J 21170.58334491 -.00005271 00000-0 -33046-4 0 9997
L22 47985 53.0468 130.8804 0004076 15.4967 315.3723 15.73233961 1874

Live tracking and technical data element details for STARLINK-2308 (NORAD 47985). STARLINK-2308 can be tracked NOW for your location showing map with azimuth and elevation plus other details from your city location.

Track the satellite on the map from your city or location and see movement details for azimuth, elevation, latitude, longitude, range, height, and movement on the map or in text.







IsCatalogInMostPopularTable: catalog: 47985, numindb: 44
Update: records affected: 1



GetName: 47985 STARLINK-2308

Hit Count: updated at: Mon, 21 Jun 2021 04:33:07 GMT